Volver al catálogo

COSMOS 2056

ActivoNavegaciónLEO
NORAD 20432·PAYLOAD·🇷🇺 Russia

Lanzado Jan 18, 1990 desde Plesetsk Cosmodrome

Loading…

Próximos Pases (próximas 24 horas)

TLE

ActualizadoSource: Space-Track

Época: Sep 14, 2026, 13:26 UTC

1 20432U 90004A   26257.55998569  .00000089  00000-0  40980-4 0  9994
2 20432  74.0345   2.6923 0021565  35.7031 324.5557 14.34295149916544

Sigue COSMOS 2056 en tiempo real con AllMySat

Download on the App Store